Year,Month,Day,Hour,Minute,Value (Times are PST for temperature in C)
2013,04,27,00,00,10.30
2013,04,27,00,01,10.30
2013,04,27,00,02,10.30
2013,04,27,00,03,10.30
2013,04,27,00,04,10.30
2013,04,27,00,05,10.30
2013,04,27,00,06,10.30
2013,04,27,00,07,10.20
2013,04,27,00,08,10.20
2013,04,27,00,09,10.20
2013,04,27,00,10,10.20
2013,04,27,00,11,10.10
2013,04,27,00,12,10.10
2013,04,27,00,13,10.10
2013,04,27,00,14,10.10
2013,04,27,00,15,10.10
2013,04,27,00,16,10.10
2013,04,27,00,17,10.10
2013,04,27,00,18,10.20
2013,04,27,00,19,10.20
2013,04,27,00,20,10.20
2013,04,27,00,21,10.30
2013,04,27,00,22,10.30
2013,04,27,00,23,10.40
2013,04,27,00,24,10.40
2013,04,27,00,25,10.50
2013,04,27,00,26,10.50
2013,04,27,00,27,10.50
2013,04,27,00,28,10.50
2013,04,27,00,29,10.40
2013,04,27,00,30,10.40
2013,04,27,00,31,10.40
2013,04,27,00,32,10.40
2013,04,27,00,33,10.40
2013,04,27,00,34,10.40
2013,04,27,00,35,10.40
2013,04,27,00,36,10.40
2013,04,27,00,37,10.40
2013,04,27,00,38,10.40
2013,04,27,00,39,10.40
2013,04,27,00,40,10.40
2013,04,27,00,41,10.30
2013,04,27,00,42,10.30
2013,04,27,00,43,10.30
2013,04,27,00,44,10.30
2013,04,27,00,45,10.30
2013,04,27,00,46,10.30
2013,04,27,00,47,10.20
2013,04,27,00,48,10.20
2013,04,27,00,49,10.20
2013,04,27,00,50,10.20
2013,04,27,00,51,10.10
2013,04,27,00,52,10.10
2013,04,27,00,53,10.10
2013,04,27,00,54,10.10
2013,04,27,00,55,10.10
2013,04,27,00,56,10.00
2013,04,27,00,57,10.00
2013,04,27,00,58,9.90
2013,04,27,00,59,9.90
2013,04,27,01,00,9.90
2013,04,27,01,01,9.90
2013,04,27,01,02,9.90
2013,04,27,01,03,9.90
2013,04,27,01,04,10.00
2013,04,27,01,05,10.00
2013,04,27,01,06,10.10
2013,04,27,01,07,10.10
2013,04,27,01,08,10.20
2013,04,27,01,09,10.20
2013,04,27,01,10,10.20
2013,04,27,01,11,10.20
2013,04,27,01,12,10.30
2013,04,27,01,13,10.30
2013,04,27,01,14,10.30
2013,04,27,01,15,10.30
2013,04,27,01,16,10.30
2013,04,27,01,17,10.30
2013,04,27,01,18,10.20
2013,04,27,01,19,10.20
2013,04,27,01,20,10.20
2013,04,27,01,21,10.20
2013,04,27,01,22,10.20
2013,04,27,01,23,10.20
2013,04,27,01,24,10.20
2013,04,27,01,25,10.20
2013,04,27,01,26,10.10
2013,04,27,01,27,10.10
2013,04,27,01,28,10.10
2013,04,27,01,29,10.00
2013,04,27,01,30,10.00
2013,04,27,01,31,10.00
2013,04,27,01,32,10.00
2013,04,27,01,33,10.00
2013,04,27,01,34,10.00
2013,04,27,01,35,10.00
2013,04,27,01,36,9.90
2013,04,27,01,37,9.90
2013,04,27,01,38,9.90
2013,04,27,01,39,9.90
2013,04,27,01,40,9.80
2013,04,27,01,41,9.80
2013,04,27,01,42,9.80
2013,04,27,01,43,9.80
2013,04,27,01,44,9.90
2013,04,27,01,45,9.90
2013,04,27,01,46,10.00
2013,04,27,01,47,10.00
2013,04,27,01,48,10.00
2013,04,27,01,49,10.00
2013,04,27,01,50,10.10
2013,04,27,01,51,10.10
2013,04,27,01,52,10.20
2013,04,27,01,53,10.20
2013,04,27,01,54,10.20
2013,04,27,01,55,10.20
2013,04,27,01,56,10.10
2013,04,27,01,57,10.10
2013,04,27,01,58,10.10
2013,04,27,01,59,10.10
2013,04,27,02,00,10.00
2013,04,27,02,01,10.00
2013,04,27,02,02,10.00
2013,04,27,02,03,9.90
2013,04,27,02,04,9.90
2013,04,27,02,05,9.80
2013,04,27,02,06,9.80
2013,04,27,02,07,9.80
2013,04,27,02,08,9.80
2013,04,27,02,09,9.70
2013,04,27,02,10,9.70
2013,04,27,02,11,9.60
2013,04,27,02,12,9.60
2013,04,27,02,13,9.60
2013,04,27,02,14,9.70
2013,04,27,02,15,9.80
2013,04,27,02,16,9.90
2013,04,27,02,17,9.90
2013,04,27,02,18,9.90
2013,04,27,02,19,9.80
2013,04,27,02,20,9.80
2013,04,27,02,21,9.80
2013,04,27,02,22,9.80
2013,04,27,02,23,9.80
2013,04,27,02,24,9.80
2013,04,27,02,25,9.80
2013,04,27,02,26,9.80
2013,04,27,02,27,9.80
2013,04,27,02,28,9.80
2013,04,27,02,29,9.80
2013,04,27,02,30,9.80
2013,04,27,02,31,9.80
2013,04,27,02,32,9.80
2013,04,27,02,33,9.80
2013,04,27,02,34,9.80
2013,04,27,02,35,9.70
2013,04,27,02,36,9.60
2013,04,27,02,37,9.60
2013,04,27,02,38,9.60
2013,04,27,02,39,9.60
2013,04,27,02,40,9.60
2013,04,27,02,41,9.60
2013,04,27,02,42,9.60
2013,04,27,02,43,9.60
2013,04,27,02,44,9.60
2013,04,27,02,45,9.60
2013,04,27,02,46,9.60
2013,04,27,02,47,9.60
2013,04,27,02,48,9.70
2013,04,27,02,49,9.70
2013,04,27,02,50,9.70
2013,04,27,02,51,9.70
2013,04,27,02,52,9.70
2013,04,27,02,53,9.70
2013,04,27,02,54,9.70
2013,04,27,02,55,9.70
2013,04,27,02,56,9.70
2013,04,27,02,57,9.70
2013,04,27,02,58,9.70
2013,04,27,02,59,9.70
2013,04,27,03,00,9.70
2013,04,27,03,01,9.60
2013,04,27,03,02,9.60
2013,04,27,03,03,9.60
2013,04,27,03,04,9.60
2013,04,27,03,05,9.60
2013,04,27,03,06,9.60
2013,04,27,03,07,9.60
2013,04,27,03,08,9.60
2013,04,27,03,09,9.60
2013,04,27,03,10,9.60
2013,04,27,03,11,9.60
2013,04,27,03,12,9.60
2013,04,27,03,13,9.60
2013,04,27,03,14,9.60
2013,04,27,03,15,9.60
2013,04,27,03,16,9.60
2013,04,27,03,17,9.60
2013,04,27,03,18,9.60
2013,04,27,03,19,9.70
2013,04,27,03,20,9.70
2013,04,27,03,21,9.70
2013,04,27,03,22,9.70
2013,04,27,03,23,9.70
2013,04,27,03,24,9.60
2013,04,27,03,25,9.60
2013,04,27,03,26,9.60
2013,04,27,03,27,9.60
2013,04,27,03,28,9.60
2013,04,27,03,29,9.60
2013,04,27,03,30,9.60
2013,04,27,03,31,9.50
2013,04,27,03,32,9.50
2013,04,27,03,33,9.50
2013,04,27,03,34,9.40
2013,04,27,03,35,9.50
2013,04,27,03,36,9.50
2013,04,27,03,37,9.50
2013,04,27,03,38,9.50
2013,04,27,03,39,9.50
2013,04,27,03,40,9.40
2013,04,27,03,41,9.40
2013,04,27,03,42,9.50
2013,04,27,03,43,9.50
2013,04,27,03,44,9.50
2013,04,27,03,45,9.50
2013,04,27,03,46,9.50
2013,04,27,03,47,9.40
2013,04,27,03,48,9.40
2013,04,27,03,49,9.40
2013,04,27,03,50,9.40
2013,04,27,03,51,9.40
2013,04,27,03,52,9.40
2013,04,27,03,53,9.50
2013,04,27,03,54,9.50
2013,04,27,03,55,9.50
2013,04,27,03,56,9.60
2013,04,27,03,57,9.60
2013,04,27,03,58,9.60
2013,04,27,03,59,9.60
2013,04,27,04,00,9.60
2013,04,27,04,01,9.60
2013,04,27,04,02,9.50
2013,04,27,04,03,9.50
2013,04,27,04,04,9.50
2013,04,27,04,05,9.50
2013,04,27,04,06,9.50
2013,04,27,04,07,9.50
2013,04,27,04,08,9.50
2013,04,27,04,09,9.50
2013,04,27,04,10,9.50
2013,04,27,04,11,9.50
2013,04,27,04,12,9.50
2013,04,27,04,13,9.50
2013,04,27,04,14,9.50
2013,04,27,04,15,9.50
2013,04,27,04,16,9.40
2013,04,27,04,17,9.40
2013,04,27,04,18,9.40
2013,04,27,04,19,9.30
2013,04,27,04,20,9.30
2013,04,27,04,21,9.30
2013,04,27,04,22,9.40
2013,04,27,04,23,9.30
2013,04,27,04,24,9.30
2013,04,27,04,25,9.30
2013,04,27,04,26,9.30
2013,04,27,04,27,9.30
2013,04,27,04,28,9.30
2013,04,27,04,29,9.30
2013,04,27,04,30,9.30
2013,04,27,04,31,9.20
2013,04,27,04,32,9.20
2013,04,27,04,33,9.20
2013,04,27,04,34,9.10
2013,04,27,04,35,9.10
2013,04,27,04,36,9.10
2013,04,27,04,37,9.10
2013,04,27,04,38,9.10
2013,04,27,04,39,9.00
2013,04,27,04,40,9.00
2013,04,27,04,41,8.90
2013,04,27,04,42,8.90
2013,04,27,04,43,8.90
2013,04,27,04,44,8.90
2013,04,27,04,45,8.90
2013,04,27,04,46,8.90
2013,04,27,04,47,8.90
2013,04,27,04,48,8.90
2013,04,27,04,49,8.90
2013,04,27,04,50,8.90
2013,04,27,04,51,8.90
2013,04,27,04,52,8.90
2013,04,27,04,53,9.00
2013,04,27,04,54,9.00
2013,04,27,04,55,9.00
2013,04,27,04,56,9.10
2013,04,27,04,57,9.10
2013,04,27,04,58,9.10
2013,04,27,04,59,9.20
2013,04,27,05,00,9.20
2013,04,27,05,01,9.20
2013,04,27,05,02,9.20
2013,04,27,05,03,9.20
2013,04,27,05,04,9.30
2013,04,27,05,05,9.30
2013,04,27,05,06,9.40
2013,04,27,05,07,9.40
2013,04,27,05,08,9.50
2013,04,27,05,09,9.50
2013,04,27,05,10,9.60
2013,04,27,05,11,9.60
2013,04,27,05,12,9.60
2013,04,27,05,13,9.60
2013,04,27,05,14,9.70
2013,04,27,05,15,9.80
2013,04,27,05,16,9.90
2013,04,27,05,17,10.00
2013,04,27,05,18,10.20
2013,04,27,05,19,10.40
2013,04,27,05,20,10.50
2013,04,27,05,21,10.60
2013,04,27,05,22,10.70
2013,04,27,05,23,10.70
2013,04,27,05,24,10.70
2013,04,27,05,25,10.70
2013,04,27,05,26,10.80
2013,04,27,05,27,10.80
2013,04,27,05,28,10.70
2013,04,27,05,29,10.70
2013,04,27,05,30,10.70
2013,04,27,05,31,10.70
2013,04,27,05,32,10.70
2013,04,27,05,33,10.70
2013,04,27,05,34,10.70
2013,04,27,05,35,10.70
2013,04,27,05,36,10.70
2013,04,27,05,37,10.80
2013,04,27,05,38,10.80
2013,04,27,05,39,10.80
2013,04,27,05,40,10.80
2013,04,27,05,41,10.80
2013,04,27,05,42,10.80
2013,04,27,05,43,10.80
2013,04,27,05,44,10.90
2013,04,27,05,45,10.90
2013,04,27,05,46,10.90
2013,04,27,05,47,10.90
2013,04,27,05,48,10.90
2013,04,27,05,49,10.90
2013,04,27,05,50,10.90
2013,04,27,05,51,10.90
2013,04,27,05,52,10.90
2013,04,27,05,53,10.90
2013,04,27,05,54,10.80
2013,04,27,05,55,10.80
2013,04,27,05,56,10.80
2013,04,27,05,57,10.90
2013,04,27,05,58,10.90
2013,04,27,05,59,10.90
2013,04,27,06,00,10.80
2013,04,27,06,01,10.80
2013,04,27,06,02,10.80
2013,04,27,06,03,10.80
2013,04,27,06,04,10.80
2013,04,27,06,05,10.80
2013,04,27,06,06,10.80
2013,04,27,06,07,10.80
2013,04,27,06,08,10.80
2013,04,27,06,09,10.70
2013,04,27,06,10,10.70
2013,04,27,06,11,10.80
2013,04,27,06,12,10.80
2013,04,27,06,13,10.80
2013,04,27,06,14,10.80
2013,04,27,06,15,10.80
2013,04,27,06,16,10.80
2013,04,27,06,17,10.80
2013,04,27,06,18,10.70
2013,04,27,06,19,10.80
2013,04,27,06,20,10.80
2013,04,27,06,21,10.80
2013,04,27,06,22,10.80
2013,04,27,06,23,10.80
2013,04,27,06,24,10.80
2013,04,27,06,25,10.80
2013,04,27,06,26,10.80
2013,04,27,06,27,10.80
2013,04,27,06,28,10.80
2013,04,27,06,29,10.80
2013,04,27,06,30,10.80
2013,04,27,06,31,10.80
2013,04,27,06,32,10.80
2013,04,27,06,33,10.80
2013,04,27,06,34,10.80
2013,04,27,06,35,10.80
2013,04,27,06,36,10.80
2013,04,27,06,37,10.90
2013,04,27,06,38,10.90
2013,04,27,06,39,11.00
2013,04,27,06,40,11.00
2013,04,27,06,41,11.10
2013,04,27,06,42,11.10
2013,04,27,06,43,11.10
2013,04,27,06,44,11.10
2013,04,27,06,45,11.10
2013,04,27,06,46,11.10
2013,04,27,06,47,11.10
2013,04,27,06,48,11.10
2013,04,27,06,49,11.10
2013,04,27,06,50,11.10
2013,04,27,06,51,11.10
2013,04,27,06,52,11.20
2013,04,27,06,53,11.20
2013,04,27,06,54,11.20
2013,04,27,06,55,11.20
2013,04,27,06,56,11.20
2013,04,27,06,57,11.20
2013,04,27,06,58,11.20
2013,04,27,06,59,11.20
2013,04,27,07,00,11.20
2013,04,27,07,01,11.20
2013,04,27,07,02,11.20
2013,04,27,07,03,11.20
2013,04,27,07,04,11.20
2013,04,27,07,05,11.20
2013,04,27,07,06,11.30
2013,04,27,07,07,11.30
2013,04,27,07,08,11.30
2013,04,27,07,09,11.40
2013,04,27,07,10,11.40
2013,04,27,07,11,11.40
2013,04,27,07,12,11.40
2013,04,27,07,13,11.40
2013,04,27,07,14,11.40
2013,04,27,07,15,11.40
2013,04,27,07,16,11.40
2013,04,27,07,17,11.40
2013,04,27,07,18,11.40
2013,04,27,07,19,11.40
2013,04,27,07,20,11.40
2013,04,27,07,21,11.40
2013,04,27,07,22,11.40
2013,04,27,07,23,11.30
2013,04,27,07,24,11.30
2013,04,27,07,25,11.30
2013,04,27,07,26,11.30
2013,04,27,07,27,11.30
2013,04,27,07,28,11.30
2013,04,27,07,29,11.20
2013,04,27,07,30,11.20
2013,04,27,07,31,11.20
2013,04,27,07,32,11.20
2013,04,27,07,33,11.20
2013,04,27,07,34,11.20
2013,04,27,07,35,11.20
2013,04,27,07,36,11.20
2013,04,27,07,37,11.30
2013,04,27,07,38,11.30
2013,04,27,07,39,11.30
2013,04,27,07,40,11.30
2013,04,27,07,41,11.30
2013,04,27,07,42,11.40
2013,04,27,07,43,11.40
2013,04,27,07,44,11.50
2013,04,27,07,45,11.60
2013,04,27,07,46,11.60
2013,04,27,07,47,11.70
2013,04,27,07,48,11.70
2013,04,27,07,49,11.60
2013,04,27,07,50,11.60
2013,04,27,07,51,11.50
2013,04,27,07,52,11.50
2013,04,27,07,53,11.50
2013,04,27,07,54,11.50
2013,04,27,07,55,11.50
2013,04,27,07,56,11.40
2013,04,27,07,57,11.40
2013,04,27,07,58,11.40
2013,04,27,07,59,11.40
2013,04,27,08,00,11.40
2013,04,27,08,01,11.40
2013,04,27,08,02,11.40
2013,04,27,08,03,11.40
2013,04,27,08,04,11.30
2013,04,27,08,05,11.30
2013,04,27,08,06,11.30
2013,04,27,08,07,11.30
2013,04,27,08,08,11.30
2013,04,27,08,09,11.30
2013,04,27,08,10,11.30
2013,04,27,08,11,11.30
2013,04,27,08,12,11.30
2013,04,27,08,13,11.20
2013,04,27,08,14,11.20
2013,04,27,08,15,11.20
2013,04,27,08,16,11.20
2013,04,27,08,17,11.20
2013,04,27,08,18,11.20
2013,04,27,08,19,11.10
2013,04,27,08,20,11.20
2013,04,27,08,21,11.20
2013,04,27,08,22,11.20
2013,04,27,08,23,11.20
2013,04,27,08,24,11.20
2013,04,27,08,25,11.20
2013,04,27,08,26,11.20
2013,04,27,08,27,11.30
2013,04,27,08,28,11.30
2013,04,27,08,29,11.30
2013,04,27,08,30,11.30
2013,04,27,08,31,11.30
2013,04,27,08,32,11.40
2013,04,27,08,33,11.40
2013,04,27,08,34,11.40
2013,04,27,08,35,11.50
2013,04,27,08,36,11.50
2013,04,27,08,37,11.50
2013,04,27,08,38,11.50
2013,04,27,08,39,11.60
2013,04,27,08,40,11.60
2013,04,27,08,41,11.60
2013,04,27,08,42,11.60
2013,04,27,08,43,11.70
2013,04,27,08,44,11.70
2013,04,27,08,45,11.70
2013,04,27,08,46,11.70
2013,04,27,08,47,11.70
2013,04,27,08,48,11.70
2013,04,27,08,49,11.70
2013,04,27,08,50,11.70
2013,04,27,08,51,11.70
2013,04,27,08,52,11.70
2013,04,27,08,53,11.70
2013,04,27,08,54,11.70
2013,04,27,08,55,11.60
2013,04,27,08,56,11.60
2013,04,27,08,57,11.60
2013,04,27,08,58,11.60
2013,04,27,08,59,11.60
2013,04,27,09,00,11.60
2013,04,27,09,01,11.50
2013,04,27,09,02,11.50
2013,04,27,09,03,11.40
2013,04,27,09,04,11.40
2013,04,27,09,05,11.40
2013,04,27,09,06,11.30
2013,04,27,09,07,11.30
2013,04,27,09,08,11.30
2013,04,27,09,09,11.30
2013,04,27,09,10,11.30
2013,04,27,09,11,11.30
2013,04,27,09,12,11.30
2013,04,27,09,13,11.30
2013,04,27,09,14,11.30
2013,04,27,09,15,11.30
2013,04,27,09,16,11.20
2013,04,27,09,17,11.20
2013,04,27,09,18,11.20
2013,04,27,09,19,11.20
2013,04,27,09,20,11.10
2013,04,27,09,21,11.10
2013,04,27,09,22,11.10
2013,04,27,09,23,11.10
2013,04,27,09,24,11.10
2013,04,27,09,25,11.10
2013,04,27,09,26,11.10
2013,04,27,09,27,11.10
2013,04,27,09,28,11.10
2013,04,27,09,29,11.00
2013,04,27,09,30,11.10
2013,04,27,09,31,11.00
2013,04,27,09,32,11.00
2013,04,27,09,33,11.00
2013,04,27,09,34,11.00
2013,04,27,09,35,11.00
2013,04,27,09,36,11.00
2013,04,27,09,37,11.10
2013,04,27,09,38,11.10
2013,04,27,09,39,11.10
2013,04,27,09,40,11.10
2013,04,27,09,41,11.10
2013,04,27,09,42,11.00
2013,04,27,09,43,11.00
2013,04,27,09,44,11.00
2013,04,27,09,45,10.90
2013,04,27,09,46,10.90
2013,04,27,09,47,10.90
2013,04,27,09,48,10.90
2013,04,27,09,49,10.80
2013,04,27,09,50,10.90
2013,04,27,09,51,10.90
2013,04,27,09,52,10.90
2013,04,27,09,53,10.90
2013,04,27,09,54,10.90
2013,04,27,09,55,10.90
2013,04,27,09,56,10.90
2013,04,27,09,57,10.90
2013,04,27,09,58,10.90
2013,04,27,09,59,10.90
2013,04,27,10,00,10.90
2013,04,27,10,01,10.90
2013,04,27,10,02,10.90
2013,04,27,10,03,10.90
2013,04,27,10,04,10.90
2013,04,27,10,05,10.90
2013,04,27,10,06,10.90
2013,04,27,10,07,11.00
2013,04,27,10,08,11.10
2013,04,27,10,09,11.10
2013,04,27,10,10,11.10
2013,04,27,10,11,11.00
2013,04,27,10,12,11.00
2013,04,27,10,13,11.10
2013,04,27,10,14,11.10
2013,04,27,10,15,11.20
2013,04,27,10,16,11.20
2013,04,27,10,17,11.20
2013,04,27,10,18,11.30
2013,04,27,10,19,11.30
2013,04,27,10,20,11.30
2013,04,27,10,21,11.30
2013,04,27,10,22,11.30
2013,04,27,10,23,11.30
2013,04,27,10,24,11.30
2013,04,27,10,25,11.40
2013,04,27,10,26,11.40
2013,04,27,10,27,11.40
2013,04,27,10,28,11.40
2013,04,27,10,29,11.40
2013,04,27,10,30,11.40
2013,04,27,10,31,11.30
2013,04,27,10,32,11.30
2013,04,27,10,33,11.30
2013,04,27,10,34,11.30
2013,04,27,10,35,11.30
2013,04,27,10,36,11.30
2013,04,27,10,37,11.40
2013,04,27,10,38,11.40
2013,04,27,10,39,11.40
2013,04,27,10,40,11.40
2013,04,27,10,41,11.40
2013,04,27,10,42,11.50
2013,04,27,10,43,11.50
2013,04,27,10,44,11.60
2013,04,27,10,45,11.60
2013,04,27,10,46,11.60
2013,04,27,10,47,11.60
2013,04,27,10,48,11.60
2013,04,27,10,49,11.70
2013,04,27,10,50,11.70
2013,04,27,10,51,11.70
2013,04,27,10,52,11.70
2013,04,27,10,53,11.70
2013,04,27,10,54,11.80
2013,04,27,10,55,11.80
2013,04,27,10,56,11.90
2013,04,27,10,57,11.90
2013,04,27,10,58,11.90
2013,04,27,10,59,11.90
2013,04,27,11,00,11.90
2013,04,27,11,01,11.90
2013,04,27,11,02,12.00
2013,04,27,11,03,11.90
2013,04,27,11,04,11.90
2013,04,27,11,05,11.90
2013,04,27,11,06,11.90
2013,04,27,11,07,11.90
2013,04,27,11,08,11.90
2013,04,27,11,09,11.90
2013,04,27,11,10,11.90
2013,04,27,11,11,11.90
2013,04,27,11,12,11.90
2013,04,27,11,13,11.90
2013,04,27,11,14,11.90
2013,04,27,11,15,11.90
2013,04,27,11,16,11.80
2013,04,27,11,17,11.80
2013,04,27,11,18,11.70
2013,04,27,11,19,11.70
2013,04,27,11,20,11.70
2013,04,27,11,21,11.70
2013,04,27,11,22,11.70
2013,04,27,11,23,11.70
2013,04,27,11,24,11.70
2013,04,27,11,25,11.70
2013,04,27,11,26,11.70
2013,04,27,11,27,11.70
2013,04,27,11,28,11.80
2013,04,27,11,29,11.80
2013,04,27,11,30,11.80
2013,04,27,11,31,11.80
2013,04,27,11,32,11.80
2013,04,27,11,33,11.70
2013,04,27,11,34,11.70
2013,04,27,11,35,11.70
2013,04,27,11,36,11.70
2013,04,27,11,37,11.80
2013,04,27,11,38,11.80
2013,04,27,11,39,11.80
2013,04,27,11,40,11.80
2013,04,27,11,41,11.80
2013,04,27,11,42,11.90
2013,04,27,11,43,11.90
2013,04,27,11,44,11.90
2013,04,27,11,45,11.90
2013,04,27,11,46,11.90
2013,04,27,11,47,12.00
2013,04,27,11,48,12.00
2013,04,27,11,49,12.10
2013,04,27,11,50,12.10
2013,04,27,11,51,12.20
2013,04,27,11,52,12.20
2013,04,27,11,53,12.30
2013,04,27,11,54,12.30
2013,04,27,11,55,12.30
2013,04,27,11,56,12.40
2013,04,27,11,57,12.40
2013,04,27,11,58,12.50
2013,04,27,11,59,12.50
2013,04,27,12,00,12.60
2013,04,27,12,01,12.60
2013,04,27,12,02,12.60
2013,04,27,12,03,12.60
2013,04,27,12,04,12.60
2013,04,27,12,05,12.70
2013,04,27,12,06,12.70
2013,04,27,12,07,12.80
2013,04,27,12,08,12.80
2013,04,27,12,09,12.80
2013,04,27,12,10,12.80
2013,04,27,12,11,12.90
2013,04,27,12,12,12.90
2013,04,27,12,13,12.80
2013,04,27,12,14,12.60
2013,04,27,12,15,12.50
2013,04,27,12,16,12.40
2013,04,27,12,17,12.40
2013,04,27,12,18,12.40
2013,04,27,12,19,12.30
2013,04,27,12,20,12.30
2013,04,27,12,21,12.30
2013,04,27,12,22,12.30
2013,04,27,12,23,12.30
2013,04,27,12,24,12.30
2013,04,27,12,25,12.30
2013,04,27,12,26,12.30
2013,04,27,12,27,12.30
2013,04,27,12,28,12.30
2013,04,27,12,29,12.30
2013,04,27,12,30,12.30
2013,04,27,12,31,12.30
2013,04,27,12,32,12.20
2013,04,27,12,33,12.20
2013,04,27,12,34,12.30
2013,04,27,12,35,12.30
2013,04,27,12,36,12.30
2013,04,27,12,37,12.30
2013,04,27,12,38,12.40
2013,04,27,12,39,12.40
2013,04,27,12,40,12.50
2013,04,27,12,41,12.50
2013,04,27,12,42,12.50
2013,04,27,12,43,12.60
2013,04,27,12,44,12.60
2013,04,27,12,45,12.60
2013,04,27,12,46,12.60
2013,04,27,12,47,12.50
2013,04,27,12,48,12.50
2013,04,27,12,49,12.40
2013,04,27,12,50,12.40
2013,04,27,12,51,12.40
2013,04,27,12,52,12.40
2013,04,27,12,53,12.40
2013,04,27,12,54,12.50
2013,04,27,12,55,12.50
2013,04,27,12,56,12.50
2013,04,27,12,57,12.60
2013,04,27,12,58,12.60
2013,04,27,12,59,12.70
2013,04,27,13,00,12.70
2013,04,27,13,01,12.80
2013,04,27,13,02,12.80
2013,04,27,13,03,12.90
2013,04,27,13,04,12.90
2013,04,27,13,05,12.90
2013,04,27,13,06,13.00
2013,04,27,13,07,13.10
2013,04,27,13,08,13.20
2013,04,27,13,09,13.30
2013,04,27,13,10,13.40
2013,04,27,13,11,13.40
2013,04,27,13,12,13.40
2013,04,27,13,13,13.50
2013,04,27,13,14,13.50
2013,04,27,13,15,13.60
2013,04,27,13,16,13.60
2013,04,27,13,17,13.70
2013,04,27,13,18,13.80
2013,04,27,13,19,13.90
2013,04,27,13,20,13.90
2013,04,27,13,21,14.00
2013,04,27,13,22,14.10
2013,04,27,13,23,14.30
2013,04,27,13,24,14.50
2013,04,27,13,25,14.60
2013,04,27,13,26,14.70
2013,04,27,13,27,14.80
2013,04,27,13,28,15.00
2013,04,27,13,29,15.10
2013,04,27,13,30,15.30
2013,04,27,13,31,15.40
2013,04,27,13,32,15.50
2013,04,27,13,33,15.50
2013,04,27,13,34,15.50
2013,04,27,13,35,15.40
2013,04,27,13,36,15.30
2013,04,27,13,37,15.20
2013,04,27,13,38,15.10
2013,04,27,13,39,15.10
2013,04,27,13,40,15.00
2013,04,27,13,41,14.90
2013,04,27,13,42,14.80
2013,04,27,13,43,14.70
2013,04,27,13,44,14.50
2013,04,27,13,45,14.40
2013,04,27,13,46,14.30
2013,04,27,13,47,14.30
2013,04,27,13,48,14.20
2013,04,27,13,49,14.20
2013,04,27,13,50,14.20
2013,04,27,13,51,14.20
2013,04,27,13,52,14.20
2013,04,27,13,53,14.30
2013,04,27,13,54,14.30
2013,04,27,13,55,14.30
2013,04,27,13,56,14.30
2013,04,27,13,57,14.40
2013,04,27,13,58,14.40
2013,04,27,13,59,14.50
2013,04,27,14,00,14.50
2013,04,27,14,01,14.50
2013,04,27,14,02,14.50
2013,04,27,14,03,14.50
2013,04,27,14,04,14.40
2013,04,27,14,05,14.40
2013,04,27,14,06,14.40
2013,04,27,14,07,14.30
2013,04,27,14,08,14.30
2013,04,27,14,09,14.40
2013,04,27,14,10,14.40
2013,04,27,14,11,14.40
2013,04,27,14,12,14.40
2013,04,27,14,13,14.40
2013,04,27,14,14,14.50
2013,04,27,14,15,14.50
2013,04,27,14,16,14.50
2013,04,27,14,17,14.50
2013,04,27,14,18,14.50
2013,04,27,14,19,14.40
2013,04,27,14,20,14.40
2013,04,27,14,21,14.30
2013,04,27,14,22,14.30
2013,04,27,14,23,14.20
2013,04,27,14,24,14.20
2013,04,27,14,25,14.10
2013,04,27,14,26,14.10
2013,04,27,14,27,14.00
2013,04,27,14,28,13.90
2013,04,27,14,29,13.90
2013,04,27,14,30,13.90
2013,04,27,14,31,13.90
2013,04,27,14,32,13.90
2013,04,27,14,33,13.90
2013,04,27,14,34,13.80
2013,04,27,14,35,13.80
2013,04,27,14,36,13.80
2013,04,27,14,37,13.80
2013,04,27,14,38,13.80
2013,04,27,14,39,13.80
2013,04,27,14,40,13.80
2013,04,27,14,41,13.80
2013,04,27,14,42,13.80
2013,04,27,14,43,13.80
2013,04,27,14,44,13.70
2013,04,27,14,45,13.70
2013,04,27,14,46,13.70
2013,04,27,14,47,13.70
2013,04,27,14,48,13.70
2013,04,27,14,49,13.70
2013,04,27,14,50,13.70
2013,04,27,14,51,13.70
2013,04,27,14,52,13.70
2013,04,27,14,53,13.70
2013,04,27,14,54,13.70
2013,04,27,14,55,13.60
2013,04,27,14,56,13.60
2013,04,27,14,57,13.60
2013,04,27,14,58,13.60
2013,04,27,14,59,13.50
2013,04,27,15,00,13.50
2013,04,27,15,01,13.50
2013,04,27,15,02,13.50
2013,04,27,15,03,13.50
2013,04,27,15,04,13.40
2013,04,27,15,05,13.40
2013,04,27,15,06,13.40
2013,04,27,15,07,13.40
2013,04,27,15,08,13.30
2013,04,27,15,09,13.30
2013,04,27,15,10,13.30
2013,04,27,15,11,13.30
2013,04,27,15,12,13.20
2013,04,27,15,13,13.20
2013,04,27,15,14,13.20
2013,04,27,15,15,13.20
2013,04,27,15,16,13.20
2013,04,27,15,17,13.20
2013,04,27,15,18,13.30
2013,04,27,15,19,13.20
2013,04,27,15,20,13.20
2013,04,27,15,21,13.20
2013,04,27,15,22,13.20
2013,04,27,15,23,13.20
2013,04,27,15,24,13.20
2013,04,27,15,25,13.10
2013,04,27,15,26,13.10
2013,04,27,15,27,13.10
2013,04,27,15,28,13.10
2013,04,27,15,29,13.10
2013,04,27,15,30,13.10
2013,04,27,15,31,13.10
2013,04,27,15,32,13.10
2013,04,27,15,33,13.00
2013,04,27,15,34,13.00
2013,04,27,15,35,13.00
2013,04,27,15,36,13.10
2013,04,27,15,37,13.10
2013,04,27,15,38,13.10
2013,04,27,15,39,13.10
2013,04,27,15,40,13.20
2013,04,27,15,41,13.20
2013,04,27,15,42,13.20
2013,04,27,15,43,13.20
2013,04,27,15,44,13.20
2013,04,27,15,45,13.20
2013,04,27,15,46,13.20
2013,04,27,15,47,13.20
2013,04,27,15,48,13.20
2013,04,27,15,49,13.20
2013,04,27,15,50,13.20
2013,04,27,15,51,13.20
2013,04,27,15,52,13.20
2013,04,27,15,53,13.20
2013,04,27,15,54,13.20
2013,04,27,15,55,13.20
2013,04,27,15,56,13.30
2013,04,27,15,57,13.30
2013,04,27,15,58,13.20
2013,04,27,15,59,13.20
2013,04,27,16,00,13.20
2013,04,27,16,01,13.20
2013,04,27,16,02,13.20
2013,04,27,16,03,13.20
2013,04,27,16,04,13.20
2013,04,27,16,05,13.10
2013,04,27,16,06,13.10
2013,04,27,16,07,13.10
2013,04,27,16,08,13.20
2013,04,27,16,09,13.20
2013,04,27,16,10,13.20
2013,04,27,16,11,13.20
2013,04,27,16,12,13.20
2013,04,27,16,13,13.20
2013,04,27,16,14,13.20
2013,04,27,16,15,13.20
2013,04,27,16,16,13.20
2013,04,27,16,17,13.20
2013,04,27,16,18,13.20
2013,04,27,16,19,13.30
2013,04,27,16,20,13.30
2013,04,27,16,21,13.30
2013,04,27,16,22,13.30
2013,04,27,16,23,13.30
2013,04,27,16,24,13.30
2013,04,27,16,25,13.30
2013,04,27,16,26,13.30
2013,04,27,16,27,13.40
2013,04,27,16,28,13.40
2013,04,27,16,29,13.40
2013,04,27,16,30,13.40
2013,04,27,16,31,13.50
2013,04,27,16,32,13.50
2013,04,27,16,33,13.60
2013,04,27,16,34,13.60
2013,04,27,16,35,13.60
2013,04,27,16,36,13.70
2013,04,27,16,37,13.70
2013,04,27,16,38,13.70
2013,04,27,16,39,13.80
2013,04,27,16,40,13.80
2013,04,27,16,41,13.90
2013,04,27,16,42,13.90
2013,04,27,16,43,13.90
2013,04,27,16,44,13.80
2013,04,27,16,45,13.80
2013,04,27,16,46,13.70
2013,04,27,16,47,13.70
2013,04,27,16,48,13.80
2013,04,27,16,49,13.80
2013,04,27,16,50,13.80
2013,04,27,16,51,13.80
2013,04,27,16,52,13.80
2013,04,27,16,53,13.80
2013,04,27,16,54,13.80
2013,04,27,16,55,13.90
2013,04,27,16,56,13.90
2013,04,27,16,57,13.90
2013,04,27,16,58,14.00
2013,04,27,16,59,14.00
2013,04,27,17,00,14.00
2013,04,27,17,01,14.10
2013,04,27,17,02,14.10
2013,04,27,17,03,14.10
2013,04,27,17,04,14.00
2013,04,27,17,05,14.00
2013,04,27,17,06,14.00
2013,04,27,17,07,14.00
2013,04,27,17,08,14.00
2013,04,27,17,09,14.00
2013,04,27,17,10,14.10
2013,04,27,17,11,14.20
2013,04,27,17,12,14.30
2013,04,27,17,13,14.40
2013,04,27,17,14,14.40
2013,04,27,17,15,14.40
2013,04,27,17,16,14.50
2013,04,27,17,17,14.50
2013,04,27,17,18,14.50
2013,04,27,17,19,14.50
2013,04,27,17,20,14.60
2013,04,27,17,21,14.50
2013,04,27,17,22,14.40
2013,04,27,17,23,14.40
2013,04,27,17,24,14.40
2013,04,27,17,25,14.40
2013,04,27,17,26,14.40
2013,04,27,17,27,14.40
2013,04,27,17,28,14.50